Regional Weather Roundup
Issued by NWS

Home | Current Version | Previous Version | Graphics & Text | Print | Product List | Glossary On
Versions: 1 2 3 4 5 6 7 8 9 10 11 12 13 14 15 16 17 18 19 20 21 22 23 24 25 26 27 28 29 30 31 32 33 34 35 36 37 38 39 40 41 42 43 44 45 46 47 48 49 50
000
ASUS45 KSLC 201310
RWRUT

UTAH REGIONAL WEATHER ROUNDUP
NATIONAL WEATHER SERVICE SALT LAKE CITY UT
700 AM MDT WED AUG 20 2014

UTZ001>011-023>025-201400-

NORTHERN UTAH

CITY           SKY/WX    TMP DP  RH WIND       PRES   REMARKS
HILL AFB       CLOUDY    61  55  82 S7        29.98R
LOGAN          CLEAR     57  51  80 NE6       29.95R
OGDEN          CLOUDY    63  55  75 S12       29.96R
PROVO AIRPORT  LGT RAIN  59  55  88 CALM      30.04R
SALT LAKE CITY CLOUDY    62  57  83 SE14      29.97R
VERNAL         CLOUDY    59  58  96 CALM      30.02R
WENDOVER       MOCLDY    64  48  55 NE6       29.94R
HEBER CITY     RAIN      55  54  94 CALM      30.07R
WEST JORDAN    MOCLDY    63  61  94 S9        30.00R

$$

UTZ012>022-026-027-201400-

SOUTHERN UTAH

CITY           SKY/WX    TMP DP  RH WIND       PRES   REMARKS
BRYCE CANYON   CLEAR     42  40  92 SW3       30.20R
CEDAR CITY     CLEAR     58  50  75 S9        30.08R
MILFORD        CLOUDY    58  53  84 SW14      30.03R
MOAB/CYNLANDS  CLEAR     59  59 100 CALM      29.98R
PRICE          MOCLDY    58  55  90 NE3       30.07R
ST GEORGE      CLOUDY    66  54  63 E9        29.97R

$$

REGIONAL REPORTS     COLORADO/ARIZONA

CITY           SKY/WX    TMP DP  RH WIND       PRES   REMARKS
CRAIG, CO      CLOUDY    57  54  89 CALM      30.06R
GRAND JUNCTION PTCLDY    60  59  96 SE3       30.02R
RIFLE          MOCLDY    60  58  92 CALM      30.05R
MONTROSE       MOCLDY    60  58  92 CALM      30.09R
CORTEZ         MOCLDY    55  54  96 E5        30.13R
PAGE, AZ       CLEAR     66  58  75 S3        30.02R
GRAND CANYON   PTCLDY    46  45  96 CALM      30.20
KINGMAN        CLEAR     60  55  83 SE8       29.99R
FLAGSTAFF      PTCLDY    50  48  93 CALM      30.24R

$$

REGIONAL REPORTS    NEVADA/IDAHO/WYOMING

CITY           SKY/WX    TMP DP  RH WIND       PRES   REMARKS
LAS VEGAS, NV  PTCLDY    75  55  49 S9        29.85R
ELY            MOCLDY    52  50  93 SE9       30.09R
ELKO           PTCLDY    54  49  83 E6        29.97S
POCATELLO, ID  CLEAR     52  52 100 CALM      29.94R
BURLEY         MOCLDY    54  51  90 CALM      29.90R
EVANSTON, WY   FOG       53  52  96 S9        30.10R VSB 1
ROCK SPRINGS   PTCLDY    51  48  89 SW12      30.06R

$$


USA.gov is the U.S. government's official web portal to all federal, state and local government web resources and services.